Regional Weather Roundup
Issued by NWS

Home | Current Version | Previous Version | Text Only | Print | Product List | Glossary Off
Versions: 1 2 3 4 5 6 7 8 9 10 11 12 13 14 15 16 17 18 19 20 21 22 23 24 25 26 27 28 29 30 31 32 33 34 35 36 37 38 39 40 41 42 43 44 45 46 47 48 49 50

000
ASUS43 KLSX 292157
RWRMO

WEATHER SUMMARY FOR MISSOURI
NATIONAL WEATHER SERVICE SPRINGFIELD MO
500 PM CDT SAT APR 29 2017

NOTE: "FAIR" INDICATES FEW OR NO CLOUDS BELOW 12,000 FEET WITH NO
       SIGNIFICANT WEATHER AND/OR OBSTRUCTIONS TO VISIBILITY.
       CURRENT SKY AND/OR WEATHER CONDITIONS ARE NOT AVAILABLE FOR
       CHILLICOTHE AND FARMINGTON.

MOZ001>031-035>038-043-044-053-054-292300-
...NORTHERN AND WESTERN MISSOURI...

CITY           SKY/WX    TMP DP  RH WIND       PRES   REMARKS
KANSAS CTY INT LGT RAIN  47  46  97 NE18      29.73R
LEE`S SUMMIT   LGT RAIN  48  48 100 E12G33    29.74R
ST JOSEPH      CLOUDY    47  45  93 NE16      29.83R
CHILLICOTHE      N/A     43  41  93 E20G39    29.74F

$$
MOZ066>068-077>081-088>096-101>105-292300-
...SOUTHWEST MISSOURI...

CITY           SKY/WX    TMP DP  RH WIND       PRES   REMARKS
SPRINGFIELD    CLOUDY    60  59  96 NE15      29.69F
BRANSON        TSTM      63  63 100 CALM      29.73R FOG

$$
MOZ032>034-039>042-045>050-055>058-069>072-292300-
...CENTRAL MISSOURI...

CITY           SKY/WX    TMP DP  RH WIND       PRES   REMARKS
COLUMBIA       NOT AVBL
JEFFERSON CITY HVY RAIN  52  48  86 VRB3      29.87R FOG
ROLLA          HVY RAIN  54  54 100 NE8       29.81R FOG
SEDALIA        LGT RAIN  49  49 100 E17G26    29.80F

$$
MOZ051-052-059>065-292300-
...EAST CENTRAL MISSOURI...

CITY           SKY/WX    TMP DP  RH WIND       PRES   REMARKS
ST LOUIS INTL  TSTM      66  62  87 SW12      29.79R FOG
SPIRIT OF STL  TSTM      64  64 100 W3        29.77S FOG
ST CHARLES     RAIN      57  57 100 CALM      29.82R FOG

$$
MOZ072>076-082>087-097>100-106>115-292300-
...SOUTH CENTRAL AND SOUTHEAST MISSOURI...

CITY           SKY/WX    TMP DP  RH WIND       PRES   REMARKS
CAPE GIRARDEAU CLOUDY    83  68  60 S13       29.79F
FARMINGTON     TSTM      63  59  88 CALM      29.86R
POPLAR BLUFF   CLOUDY    84  68  58 S12G26    29.77S
WEST PLAINS    TSTM      63  62  97 NW8       29.80R VSB 3/4

$$


USA.gov is the U.S. government's official web portal to all federal, state and local government web resources and services.